Location: Bothwell
(42.3833°S, 147.0000°E)
Time: 01:47:18
(UTC+10:00)

XW-2F - Visible Passes

Search period start: 01 October 2022 23:00
Search period end: 12 October 2022 00:00
Orbit: 484 x 499 km, 97.5° (Epoch: 01 October)

Date Brightness Start Highest point End Pass type
(mag) Time Alt. Az. Time Alt. Az. Time Alt. Az.
02 Oct ? 06:12:42 10° NE 06:16:03 34° ESE 06:19:27 10° S visible
02 Oct ? 20:48:00 10° SSW 20:49:58 14° WSW 20:51:57 10° W visible
03 Oct ? 05:51:17 10° ENE 05:53:58 19° ESE 05:56:40 10° SSE visible
03 Oct ? 20:24:54 10° SSW 20:27:56 24° WSW 20:30:55 10° NW visible
04 Oct ? 05:30:48 10° E 05:31:56 11° ESE 05:33:04 10° SE visible
04 Oct ? 20:02:14 10° S 20:05:46 45° WSW 20:09:14 10° NNW visible
06 Oct ? 20:52:40 10° SW 20:54:20 13° WSW 20:55:58 10° W visible
07 Oct ? 05:55:27 10° ENE 05:58:18 21° ESE 06:01:09 10° SSE visible
07 Oct ? 20:29:18 10° SSW 20:32:11 22° WSW 20:35:03 10° WNW visible
08 Oct ? 05:34:36 10° E 05:36:10 12° ESE 05:37:43 10° SE visible
08 Oct ? 20:06:30 10° S 20:09:57 40° WSW 20:13:22 10° NW visible
10 Oct ? 20:57:03 10° SW 20:58:19 12° WSW 20:59:35 10° W visible
11 Oct ? 05:59:19 10° ENE 06:02:16 23° ESE 06:05:15 10° SSE visible
11 Oct ? 20:33:22 10° SSW 20:36:06 20° WSW 20:38:49 10° WNW visible
